CW1234 Weather Reports


time (UTC)temp
C
wind
direction
speed
KPH
gust
KPH
rain 1hr
cm
rain 24hr
cm
rain mn
cm
humidity
%
barometer
mb
20260507215849 18 290 12.9 16.1 0.00 0.13 0.00 24 1018.7
20260507205849 17 334 6.4 12.9 0.00 0.36 0.00 29 1019.9
20260507195845 17 27 6.4 16.1 0.00 0.53 0.00 27 1020.5
20260507185844 17 313 0.0 9.7 0.00 0.53 0.00 25 1021.1
20260507175840 16 283 1.6 8.0 0.00 0.53 0.00 24 1021.4
20260507155902 13 309 4.8 9.7 0.00 0.53 0.00 30 1023.0
20260507145900 10 269 4.8 11.3 0.00 0.53 0.00 37 1022.8
20260507135856 7 327 1.6 3.2 0.00 0.53 0.00 42 1022.2
20260507125852 3 57 0.0 1.6 0.00 0.53 0.00 51 1020.6
20260507115844 1 73 0.0 1.6 0.00 0.53 0.00 54 1020.8
20260507105836 1 49 0.0 0.0 0.00 0.53 0.00 57 1020.6
20260507095858 0 49 0.0 1.6 0.00 0.53 0.00 60 1020.3
20260507085850 0 52 0.0 3.2 0.00 0.53 0.00 72 1020.4
20260507075843 -1 82 0.0 1.6 0.00 0.53 0.00 93 1019.9
20260507065843 -2 119 0.0 1.6 0.00 0.53 0.00 93 1018.7
20260507055842 -1 119 0.0 3.2 0.00 0.53 0.00 93 1019.2
20260507045834 -1 116 0.0 4.8 0.00 0.53 0.53 92 1018.4
20260507035856 0 75 0.0 3.2 0.00 0.53 0.53 91 1018.6
20260507025848 0 286 0.0 1.6 0.00 0.53 0.53 84 1018.6
20260507015841 1 293 0.0 4.8 0.00 0.53 0.53 77 1018.8
20260507005902 3 50 1.6 6.4 0.03 0.56 0.53 68 1019.7
20260506235855 3 104 1.6 4.8 0.03 0.56 0.51 67 1019.1